Waarnemingen

Advertentie
Mijn weer
Ahaus, Duitsland (10309): temperatuur & dauwpunt: 09.08.2018 01:00:00 - 15.08.2018 01:00:00 (CEST)Ahaus, Duitsland (10309): temperatuur 5cm & temperatuur -5cm: 09.08.2018 01:00:00 - 15.08.2018 01:00:00 (CEST)Ahaus, Duitsland (10309): temperatuur -20cm & temperatuur -100cm: 09.08.2018 01:00:00 - 15.08.2018 01:00:00 (CEST)Ahaus, Duitsland (10309): windsnelheid & windstoten: 09.08.2018 01:00:00 - 15.08.2018 01:00:00 (CEST)Ahaus, Duitsland (10309): windrichting: 09.08.2018 01:00:00 - 15.08.2018 01:00:00 (CEST)Ahaus, Duitsland (10309): luchtdruk: 09.08.2018 01:00:00 - 15.08.2018 01:00:00 (CEST)Ahaus, Duitsland (10309): zicht: 09.08.2018 01:00:00 - 15.08.2018 01:00:00 (CEST)Ahaus, Duitsland (10309): Zonneschijnduur: 09.08.2018 01:00:00 - 15.08.2018 01:00:00 (CEST)Ahaus, Duitsland (10309): neerslag: 09.08.2018 01:00:00 - 15.08.2018 01:00:00 (CEST)
Datum & Tijd tt [°C] td [°C] tt 5cm [°C] tt -5cm [°C] tt -20cm [°C] tt -100cm [°C] ff [km/u] ff [kn] fx [km/u] fx [kn] dd ppp [hPa] vv [km] sd [min] rr [mm]
15.08.2018 01:00:00 17,5 14,7 16,6 19,0 21,1 20,7 6 4 12 6 ZW 1017,7 17 0 0,0
15.08.2018 00:00:00 18,4 14,7 17,8 19,6 21,3 20,7 5 3 11 6 WZW 1017,3 24 0 0,0
14.08.2018 23:00:00 18,7 14,7 18,1 19,8 21,5 20,7 5 3 15 8 WZW 1017,2 36 0 0,0
14.08.2018 22:00:00 19,3 13,9 18,6 20,1 21,7 20,7 8 4 21 11 WNW 1017,1 49 0 0,0
14.08.2018 21:00:00 19,9 13,3 19,2 20,8 21,9 20,7 12 7 24 13 WNW 1016,4 63 4 0,0
14.08.2018 20:00:00 21,3 13,1 22,0 21,7 22,0 20,7 14 8 30 16 WNW 1015,8 70 6 0,0
14.08.2018 19:00:00 22,6 12,6 24,6 22,5 22,0 20,8 16 8 29 16 NW 1015,4 45 25 0,0
14.08.2018 18:00:00 22,3 11,9 23,1 23,6 21,9 20,8 17 9 34 18 WNW 1015,1 32 45 0,0
14.08.2018 17:00:00 23,6 12,0 27,1 24,2 21,7 20,8 21 11 36 19 NW 1014,6 22 53 0,0
14.08.2018 16:00:00 22,6 12,4 23,9 24,2 21,4 20,8 18 10 37 20 W 1014,2 61 38 0,0
14.08.2018 15:00:00 23,6 12,6 28,2 24,1 21,1 20,8 21 11 42 23 WNW 1013,7 20 45 0,0
14.08.2018 14:00:00 22,5 11,7 26,7 22,6 20,9 20,8 23 12 39 21 WNW 1013,2 23 28 0,0
14.08.2018 13:00:00 20,0 13,7 22,5 21,4 20,7 20,8 15 8 33 18 WNW 1013,2 36 0 0,0
14.08.2018 12:00:00 19,3 14,0 20,3 21,6 20,6 20,8 20 11 33 18 W 1012,7 37 1 0,0
14.08.2018 11:00:00 19,2 14,9 21,1 21,3 20,4 20,8 16 9 32 17 W 1012,0 56 18 0,0
14.08.2018 10:00:00 17,7 15,9 18,6 19,7 20,3 20,8 14 8 35 19 W 1011,6 28 3 0,0
14.08.2018 09:00:00 17,0 16,0 17,0 19,3 20,3 20,8 19 11 35 19 W 1010,8 10 11 0,0
14.08.2018 08:00:00 16,9 15,9 16,6 18,6 20,4 20,9 13 7 28 15 W 1010,0 12 0 1,4
14.08.2018 07:00:00 17,0 16,3 16,6 18,5 20,5 20,9 11 6 24 13 WZW 1009,2 4,0 0 2,9
14.08.2018 06:00:00 17,0 16,3 16,6 18,4 20,6 20,9 12 6 22 12 WZW 1008,8 3,5 0 0,3
14.08.2018 05:00:00 16,5 15,8 16,2 18,4 20,8 20,9 11 6 23 12 ZW 1008,7 4,2 0 0,0
14.08.2018 04:00:00 16,2 15,6 15,8 18,3 20,9 20,9 10 6 24 13 WZW 1008,7 4,8 0 0,0
14.08.2018 03:00:00 15,9 15,4 15,6 18,3 21,1 20,9 12 6 18 10 ZZW 1008,6 5 0 0,0
14.08.2018 02:00:00 15,4 15,0 14,7 18,5 21,4 20,9 9 5 16 9 ZZW 1008,7 4,7 0 0,0
14.08.2018 01:00:00 16,0 15,5 15,7 18,9 21,6 20,9 9 5 19 10 ZZW 1008,4 6 0 0,7
14.08.2018 00:00:00 15,7 15,1 15,3 18,9 21,8 20,9 7 4 13 7 ZZW 1008,0 8 0 0,0
13.08.2018 23:00:00 16,4 15,1 15,3 19,6 22,1 20,9 9 5 18 10 ZW 1007,6 14 0 0,0
13.08.2018 22:00:00 17,1 16,3 16,6 20,2 22,3 20,9 8 5 13 7 ZW 1007,2 8 0 0,0
13.08.2018 21:00:00 17,5 16,6 16,8 21,0 22,5 20,9 10 5 18 10 ZW 1006,8 10 0 0,0
13.08.2018 20:00:00 17,9 16,5 17,3 21,9 22,6 20,9 9 5 19 10 ZW 1006,2 12 2 0,0
13.08.2018 19:00:00 18,3 16,7 18,2 22,4 22,7 20,9 11 6 17 9 ZZW 1006,3 17 5 0,8
13.08.2018 18:00:00 18,0 16,0 17,4 22,7 22,8 21,0 9 5 22 12 W 1006,1 6 0 0,9
13.08.2018 17:00:00 19,3 16,5 19,4 23,6 22,9 21,0 12 7 28 15 ZZW 1005,9 27 8 0,6
13.08.2018 16:00:00 20,2 16,0 19,9 24,6 22,7 21,0 10 6 32 18 ZW 1005,6 31 0 0,1
13.08.2018 15:00:00 21,9 15,9 23,5 25,7 22,4 21,0 14 8 34 19 ZW 1005,5 36 5 0,0
13.08.2018 14:00:00 22,0 15,9 24,1 25,0 22,2 21,0 16 9 32 18 ZW 1005,7 38 5 0,0
13.08.2018 13:00:00 21,4 16,0 24,2 23,7 22,0 21,0 18 10 32 18 ZZW 1006,1 24 1 0,0
13.08.2018 12:00:00 20,6 15,6 23,0 22,4 21,9 21,0 24 13 36 19 ZZW 1006,6 23 4 0,0
13.08.2018 11:00:00 18,9 15,3 20,1 21,4 21,9 21,0 14 8 23 13 Z 1006,7 31 0 0,0
13.08.2018 10:00:00 17,5 15,4 17,6 20,4 22,0 21,0 7 4 18 10 ZZW 1006,2 22 0 0,3
13.08.2018 09:00:00 16,7 13,4 16,6 20,2 22,2 21,0 9 5 15 8 Z 1006,1 30 0 0,1
13.08.2018 08:00:00 16,8 11,6 15,6 20,4 22,4 21,0 8 4 18 10 Z 1006,6 28 0 0,1
13.08.2018 07:00:00 17,9 9,1 17,4 20,8 22,5 21,0 5 3 8 5 Z 1006,0 58 0 0,0
13.08.2018 06:00:00 17,6 10,1 16,2 20,9 22,7 21,1 3 1 8 4 O 1006,2 49 0 0,0
13.08.2018 05:00:00 17,9 9,4 16,8 21,1 22,9 21,1 6 4 9 5 ZZO 1006,8 50 0 0,0
13.08.2018 04:00:00 18,0 9,8 16,6 21,4 23,1 21,1 3 2 6 4 ZZO 1007,1 55 0 0,0
13.08.2018 03:00:00 17,9 10,0 16,9 21,5 23,4 21,1 7 4 9 5 ZZO 1007,7 50 0 0,0
13.08.2018 02:00:00 17,0 11,2 15,0 21,9 23,7 21,1 4 2 6 3 ZO 1008,4 58 0 0,0
13.08.2018 01:00:00 18,1 11,9 15,6 22,5 24,0 21,1 4 2 7 4 ZO 1008,8 57 0 0,0
13.08.2018 00:00:00 17,5 13,6 16,0 23,1 24,3 21,1 4 2 5 3 OZO 1009,3 54 0 0,0
12.08.2018 23:00:00 19,4 12,9 16,7 24,1 24,6 21,2 4 2 19 10 ZO 1009,9 64 0 0,0
12.08.2018 22:00:00 20,1 13,6 18,3 25,1 24,8 21,2 6 3 19 10 O 1010,2 70 0 0,0
12.08.2018 21:00:00 21,9 12,6 19,7 26,6 24,9 21,2 3 2 10 6 ZO 1010,2 70 0 0,0
12.08.2018 20:00:00 25,5 10,4 24,7 28,5 24,8 21,2 8 4 22 12 ZW 1010,4 70 13 0,0
12.08.2018 19:00:00 26,7 10,1 28,6 29,8 24,6 21,2 9 5 21 11 ZW 1011,1 70 55 0,0
12.08.2018 18:00:00 27,0 10,5 29,7 30,5 24,2 21,2 10 6 26 14 ZW 1011,4 49 51 0,0
12.08.2018 17:00:00 26,7 10,9 29,5 31,0 23,7 21,3 11 6 34 18 WZW 1012,3 69 32 0,0
12.08.2018 16:00:00 26,9 10,8 32,6 31,5 23,0 21,3 11 6 27 15 ZW 1013,1 60 58 0,0
12.08.2018 15:00:00 26,0 10,4 30,9 30,7 22,2 21,3 12 6 31 17 ZZW 1013,9 40 57 0,0
12.08.2018 14:00:00 26,3 11,0 32,0 29,5 21,5 21,3 21 11 45 24 ZZW 1014,8 19 60 0,0
12.08.2018 13:00:00 24,1 10,6 29,1 27,6 20,7 21,3 16 8 35 19 WZW 1015,3 36 52 0,0
12.08.2018 12:00:00 23,1 9,5 29,5 24,5 20,2 21,3 9 5 27 15 ZW 1016,0 38 29 0,0
12.08.2018 11:00:00 21,4 8,9 26,4 21,5 19,9 21,4 15 8 22 12 ZZW 1016,5 34 19 0,0
12.08.2018 10:00:00 18,1 8,6 19,7 19,1 19,8 21,4 7 4 16 8 ZZW 1016,9 37 0 0,0
12.08.2018 09:00:00 16,3 8,2 17,1 18,1 19,8 21,4 10 5 19 10 Z 1017,2 33 6 0,0
12.08.2018 08:00:00 14,6 8,1 15,1 16,8 19,9 21,4 7 4 16 9 Z 1017,6 34 8 0,0
12.08.2018 07:00:00 12,4 8,3 12,3 15,9 20,2 21,4 9 5 13 7 ZZO 1017,9 34 0 0,0
12.08.2018 06:00:00 10,5 7,7 7,3 15,7 20,5 21,4 6 4 12 7 ZZO 1018,3 29 0 0,0
12.08.2018 05:00:00 9,9 7,8 7,3 16,0 20,8 21,4 8 4 13 7 ZZO 1018,9 26 0 0,0
12.08.2018 04:00:00 8,9 7,3 6,1 16,4 21,2 21,5 5 3 8 4 ZO 1019,6 17 0 0,0
12.08.2018 03:00:00 9,6 8,0 6,9 17,0 21,5 21,5 4 2 6 3 ZO 1020,1 20 0 0,0
12.08.2018 02:00:00 9,9 8,3 8,2 17,6 21,9 21,5 5 3 6 3 OZO 1020,6 27 0 0,0
12.08.2018 01:00:00 10,0 8,7 8,9 18,2 22,3 21,5 4 2 17 9 ZO 1021,1 28 0 0,0
12.08.2018 00:00:00 10,3 8,8 7,9 18,9 22,7 21,5 2 1 19 10 ZO 1021,5 26 0 0,0
11.08.2018 23:00:00 11,7 8,9 8,7 20,0 23,1 21,6 3 2 6 3 ZO 1021,9 41 0 0,0
11.08.2018 22:00:00 14,9 8,2 10,3 21,4 23,4 21,6 5 3 9 5 W 1021,9 47 0 0,0
11.08.2018 21:00:00 17,6 7,6 14,5 23,1 23,6 21,6 6 4 23 12 W 1021,7 61 38 0,0
11.08.2018 20:00:00 19,9 6,7 20,3 24,8 23,6 21,6 13 7 26 14 W 1021,5 70 46 0,0
11.08.2018 19:00:00 19,9 7,0 20,1 26,3 23,4 21,6 15 8 31 17 WNW 1021,7 56 48 0,0
11.08.2018 18:00:00 20,4 7,0 21,6 27,0 23,1 21,6 16 9 32 17 W 1021,6 48 35 0,0
11.08.2018 17:00:00 21,2 6,0 25,2 27,2 22,7 21,7 18 10 35 19 WZW 1021,6 57 30 0,0
11.08.2018 16:00:00 20,8 5,3 22,6 27,3 22,3 21,7 19 10 40 22 WZW 1021,6 49 45 0,0
11.08.2018 15:00:00 21,4 6,8 26,0 25,9 21,9 21,7 18 10 46 25 W 1021,5 40 31 0,0
11.08.2018 14:00:00 19,1 8,0 20,6 25,3 21,4 21,7 19 10 37 20 ZW 1021,8 38 33 0,0
11.08.2018 13:00:00 18,6 7,8 22,9 23,0 21,1 21,7 19 11 38 21 W 1022,1 46 13 0,0
11.08.2018 12:00:00 18,1 8,6 19,7 22,7 20,9 21,7 23 12 45 24 W 1021,9 38 44 0,0
11.08.2018 11:00:00 17,4 10,0 19,2 21,2 20,7 21,8 21 11 39 21 WZW 1021,6 22 59 0,0
11.08.2018 10:00:00 15,8 11,3 18,4 19,5 20,6 21,8 17 9 35 19 WZW 1021,5 26 36 0,0
11.08.2018 09:00:00 14,7 11,9 16,3 18,3 20,7 21,8 14 8 25 13 WZW 1021,0 20 58 0,0
11.08.2018 08:00:00 13,0 12,0 13,0 16,9 21,0 21,8 13 7 27 15 ZW 1020,7 7 12 0,0
11.08.2018 07:00:00 12,1 11,5 11,6 16,7 21,3 21,8 10 6 20 11 ZW 1020,2 8 0 0,0
11.08.2018 06:00:00 12,0 11,5 11,2 17,1 21,6 21,8 7 4 19 10 ZW 1019,9 12 0 0,0
11.08.2018 05:00:00 12,7 11,9 11,9 18,0 21,9 21,9 13 7 23 12 ZW 1019,5 18 0 0,0
11.08.2018 04:00:00 13,4 12,6 13,0 18,9 22,2 21,9 9 5 18 10 ZW 1019,5 17 0 0,8
11.08.2018 03:00:00 13,9 12,7 13,4 19,6 22,4 21,9 10 5 43 23 WZW 1019,5 10 0 1,1
11.08.2018 02:00:00 17,5 10,7 16,8 20,4 22,6 21,9 16 9 34 19 WZW 1019,0 25 0 0,0
11.08.2018 01:00:00 19,1 7,8 18,4 20,6 22,8 21,9 13 7 25 13 ZZW 1018,4 64 0 0,0
11.08.2018 00:00:00 19,4 7,8 18,8 21,0 23,1 22,0 15 8 26 14 ZZW 1018,6 70 0 0,0
10.08.2018 23:00:00 19,3 7,8 18,6 21,3 23,3 22,0 14 7 23 13 Z 1018,8 69 0 0,0
10.08.2018 22:00:00 19,2 7,4 18,3 21,8 23,6 22,0 13 7 25 14 Z 1019,0 65 0 0,0
10.08.2018 21:00:00 19,2 7,2 17,6 23,0 23,7 22,0 10 5 29 16 Z 1019,2 66 26 0,0
10.08.2018 20:00:00 20,9 7,2 21,2 24,5 23,7 22,0 14 7 35 19 ZW 1019,4 64 59 0,0
10.08.2018 19:00:00 21,1 6,6 21,9 25,0 23,6 22,0 22 12 42 23 ZW 1019,9 35 20 0,0
10.08.2018 18:00:00 21,2 7,4 21,8 26,0 23,5 22,1 19 10 37 20 ZZW 1020,1 54 26 0,0
10.08.2018 17:00:00 20,9 8,0 22,3 25,9 23,2 22,1 19 10 39 21 ZW 1020,6 53 11 0,0
10.08.2018 16:00:00 21,5 6,9 25,7 26,1 22,9 22,1 21 12 45 24 ZW 1021,0 32 27 0,0
10.08.2018 15:00:00 20,4 7,3 21,6 25,5 22,6 22,1 26 14 44 24 ZW 1021,0 38 13 0,0
10.08.2018 14:00:00 20,3 8,1 22,0 25,9 22,2 22,1 26 14 45 24 ZW 1021,0 27 26 0,0
10.08.2018 13:00:00 21,2 8,8 25,7 24,6 21,8 22,1 25 13 43 23 ZW 1020,9 31 45 0,0
10.08.2018 12:00:00 19,8 10,7 23,4 22,4 21,6 22,1 23 12 39 21 ZW 1020,8 23 47 0,0
10.08.2018 11:00:00 18,1 11,8 20,0 21,7 21,4 22,1 22 12 41 22 ZW 1021,0 30 55 0,0
10.08.2018 10:00:00 17,5 11,2 19,6 20,3 21,3 22,2 23 12 38 21 ZW 1020,7 37 60 0,0
10.08.2018 09:00:00 15,5 11,6 16,9 18,7 21,4 22,2 17 9 29 16 ZZW 1020,4 17 59 0,0
10.08.2018 08:00:00 14,1 11,9 14,1 17,5 21,6 22,2 15 8 32 17 ZW 1020,0 20 55 0,0
10.08.2018 07:00:00 12,9 11,4 11,8 17,2 21,9 22,2 12 7 21 12 ZZW 1019,5 31 7 0,0
10.08.2018 06:00:00 13,5 11,6 12,3 17,8 22,2 22,2 11 6 35 19 ZW 1018,5 39 0 0,0
10.08.2018 05:00:00 14,3 12,1 13,3 18,4 22,5 22,2 18 10 37 20 WZW 1017,5 32 0 0,0
10.08.2018 04:00:00 14,9 12,8 13,8 18,8 22,8 22,2 16 9 37 20 WZW 1016,6 36 0 0,0
10.08.2018 03:00:00 15,3 13,2 14,4 19,4 23,1 22,2 19 11 48 26 WZW 1015,5 66 0 0,1
10.08.2018 02:00:00 15,9 14,9 15,4 19,9 23,3 22,2 21 11 44 24 ZW 1013,5 18 0 0,6
10.08.2018 01:00:00 16,8 14,9 15,9 20,2 23,6 22,3 21 11 48 26 WZW 1012,2 29 0 0,0
10.08.2018 00:00:00 18,2 14,0 17,8 20,5 23,9 22,3 28 15 63 34 ZW 1010,7 35 0 0,0
09.08.2018 23:00:00 19,5 14,2 18,7 21,2 24,3 22,3 24 13 51 28 ZW 1009,7 31 0 0,0
09.08.2018 22:00:00 20,1 14,9 19,3 22,1 24,5 22,3 29 16 59 32 ZW 1009,2 44 0 0,0
09.08.2018 21:00:00 20,8 17,7 20,0 23,0 24,8 22,3 31 17 58 31 ZZW 1007,5 41 9 0,1
09.08.2018 20:00:00 24,1 16,8 23,4 23,9 24,9 22,3 27 15 51 28 ZZW 1006,3 31 34 0,0
09.08.2018 19:00:00 23,7 17,0 23,4 24,9 25,0 22,3 30 16 62 34 ZW 1006,3 29 25 0,0
09.08.2018 18:00:00 26,1 18,8 26,8 26,0 25,0 22,3 25 13 43 23 ZZW 1005,9 18 13 0,0
09.08.2018 17:00:00 24,0 20,0 23,2 25,8 24,9 22,3 10 6 20 11 OZO 1006,1 11 1 4,2
09.08.2018 16:00:00 25,4 17,6 24,9 26,4 24,9 22,3 15 8 30 16 O 1006,3 19 0 0,0
09.08.2018 15:00:00 24,6 18,3 27,2 26,9 24,7 22,3 14 8 29 16 NO 1007,9 13 15 0,0
09.08.2018 14:00:00 23,2 18,4 26,7 27,0 24,4 22,3 16 9 24 13 NNO 1009,5 11 35 1,4
09.08.2018 13:00:00 21,7 16,9 19,7 27,6 24,0 22,3 8 4 29 16 O 1011,2 13 15 1,2
09.08.2018 12:00:00 24,9 13,0 29,0 26,5 23,7 22,3 16 8 32 17 O 1011,9 25 54 0,0
09.08.2018 11:00:00 22,1 12,6 24,3 24,6 23,5 22,3 13 7 22 12 O 1013,1 24 8 0,0
09.08.2018 10:00:00 20,8 13,4 23,6 22,9 23,4 22,3 9 5 14 8 O 1014,3 18 16 0,0
09.08.2018 09:00:00 18,6 14,1 22,3 21,6 23,4 22,3 6 4 10 5 ONO 1014,5 10 46 0,0
09.08.2018 08:00:00 14,8 12,5 17,1 20,1 23,6 22,3 4 2 19 10 NO 1014,9 8 24 0,0
09.08.2018 07:00:00 11,2 10,2 10,5 19,7 23,9 22,3 3 2 19 10 N 1015,5 8 14 0,0
09.08.2018 06:00:00 10,7 9,9 8,2 19,9 24,2 22,3 3 2 19 10 O 1015,4 10 0 0,0
09.08.2018 05:00:00 10,8 10,0 8,5 20,3 24,5 22,3 2 1 19 10 O 1015,5 7 0 0,0
09.08.2018 04:00:00 11,1 10,2 8,9 20,8 24,8 22,3 4 2 19 10 W 1015,8 10 0 0,0
09.08.2018 03:00:00 12,1 11,1 9,7 21,2 25,1 22,3 0 0 19 10 N 1016,2 7 0 0,0
09.08.2018 02:00:00 12,7 11,7 10,1 21,8 25,5 22,3 2 1 19 10 O 1016,1 8 0 0,0
09.08.2018 01:00:00 13,2 11,7 10,4 22,4 25,8 22,3 2 1 19 10 ZO 1016,0 11 0 0,0

tt = temperatuur
td = dauwpunt
tt 5cm = temperatuur 5cm
tt -5cm = temperatuur -5cm
tt -20cm = temperatuur -20cm
tt -100cm = temperatuur -100cm
ff = windsnelheid
fx = windstoten
dd = windrichting
ppp = luchtdruk
vv = zicht
sd = Zonneschijnduur
rr = neerslag

Weerstations in de omgeving